Retour au catalogue

STARLINK-35444

ActifCommunicationsVLEO
NORAD 66511·PAYLOAD·🇺🇸 United States

Lancé Nov 15, 2025 depuis Cape Canaveral Space Force Station

Loading…

Prochains Passages (prochaines 24 heures)

TLE

FraisSource: CelesTrak SupGP

Époque: Sep 15, 2026, 03:39 UTC

1 66511C 25263AC  26258.15256944  .00043134  00000+0  15622-2 0  2586
2 66511  43.0035   0.5748 0001491 263.2617 192.2207 15.27559196    16

Suivez STARLINK-35444 en temps réel avec AllMySat

Download on the App Store